Location: Firdgum
(53.2488°N, 5.5615°E)
Time: 02:53:08
(UTC+00:00)

Cosmos 2297 Rocket - Pass Details

Date: 08 December 2019
Orbit: 838 x 845 km, 71.0° (Epoch: 17 January)

Event Time Altitude Azimuth Distance (km) Brightness Sun altitude
Exits shadow 04:10:27 52° 19° (NNE) 1,038 2.6 -29.7°
Drops below altitude 10° 04:14:43 10° 31° (NNE) 2,470 5.0 -29.1°
Sets 04:17:11 0° 32° (NNE) 3,410 5.8 -28.7°
